This demonstration page uses our WeatherBlox Daily Observations layout. Learn more.

Left ArrowRight Arrow

Hourly Observations for February 21, 2021

Temp ( °F °C ) Dew Point ( °F °C ) Humidity (%) Winds ( mph kmh ) Pressure ( in mb ) Visibility ( mi km ) Precip ( " mm )
12:54 am 00:54 Clear 32 0 25 -3.9 75 75 SSE 12 19 29.98 1015 9 14.48406 0 0
1:54 am 01:54 Mostly Cloudy 33 0.6 26 -3.3 75 75 SE 9 15 29.96 1015 10 16.0934 0 0
2:54 am 02:54 Cloudy 33 0.6 26 -3.3 75 75 SE 10 17 29.92 1013 10 16.0934 0.001 0.001
3:54 am 03:54 Cloudy 34 1.1 27 -2.8 76 76 SSE 9 15 29.9 1013 10 16.0934 0 0
4:54 am 04:54 Cloudy 33 0.6 27 -2.8 78 78 SSE 6 9 29.88 1012 10 16.0934 0 0
5:39 am 05:39 Cloudy with Light Snow 33 0.6 28 -2.2 82 82 S 3 6 29.91 1013 1.75 2.816345 0.001 0.001
5:51 am 05:51 Cloudy with Light Snow 34 1 28 -2 81 81 Calm 29.89 1012 2 3.21868 0.01 0.254
5:54 am 05:54 Cloudy with Light Snow 33 0.6 28 -2.2 82 82 Calm 29.87 1011 2.5 4.02335 0.01 0.254
6:01 am 06:01 Cloudy with Light Snow 32 0 28 -2.2 85 85 Calm 29.9 1012 5 8.0467 0.001 0.001
6:18 am 06:18 Cloudy with Light Snow 32 0 29 -1.7 88 88 Calm 29.9 1012 1.75 2.816345 0.001 0.001
6:27 am 06:27 Cloudy with Light Snow 32 0 29 -1.7 88 88 N 5 7 29.89 1012 1.25 2.011675 0.01 0.254
6:54 am 06:54 Cloudy with Light Snow 31 -0.6 29 -1.7 92 92 N 5 7 29.86 1011 0.75 1.207005 0.02 0.508
7:18 am 07:18 Cloudy with Light Snow 31 -0.6 29 -1.7 92 92 N 6 9 29.88 1012 0.75 1.207005 0.01 0.254
7:35 am 07:35 Cloudy with Light Snow 31 -0.6 29 -1.7 92 92 N 5 7 29.88 1012 0.75 1.207005 0.02 0.508
7:44 am 07:44 Cloudy with Snow 31 -0.6 29 -1.7 92 92 N 3 6 29.88 1012 0.5 0.80467 0.03 0.762
7:54 am 07:54 Cloudy with Light Snow 31 -0.6 29 -1.7 92 92 N 3 6 29.85 1011 0.5 0.80467 0.03 0.762
8:26 am 08:26 Cloudy with Heavy Snow 31 -0.6 29 -1.7 92 92 N 5 7 29.88 1012 0.25 0.402335 0.02 0.508
8:36 am 08:36 Cloudy with Snow 32 0 29 -1.7 88 88 NNW 6 9 29.88 1012 0.5 0.80467 0.04 1.016
8:54 am 08:54 Cloudy with Light Snow 32 0 29 -1.7 88 88 N 6 9 29.85 1011 0.75 1.207005 0.04 1.016
9:43 am 09:43 Cloudy with Light Snow 32 0 29 -1.7 88 88 NNW 7 11 29.88 1012 1 1.60934 0.02 0.508
9:54 am 09:54 Cloudy with Light Snow 32 0 29 -1.7 88 88 NNW 7 11 29.85 1011 0.75 1.207005 0.03 0.762
10:11 am 10:11 Cloudy with Light Snow 32 0 29 -1.7 88 88 NW 7 11 29.88 1012 0.75 1.207005 0.001 0.001
10:26 am 10:26 Cloudy with Light Snow 32 0 29 -1.7 88 88 NW 6 9 29.88 1012 0.75 1.207005 0.01 0.254
10:33 am 10:33 Cloudy with Light Snow 32 0 29 -1.7 88 88 NW 6 9 29.88 1012 0.75 1.207005 0.01 0.254
10:54 am 10:54 Cloudy with Light Snow 33 0.6 30 -1.1 89 89 WNW 6 9 29.85 1011 0.75 1.207005 0.01 0.254
10:57 am 10:57 Cloudy with Light Snow 33 0.6 30 -1.1 89 89 NW 6 9 29.88 1012 1.25 2.011675 0.001 0.001
11:00 am 11:00 Cloudy with Light Snow 33 0.6 30 -1.1 89 89 NW 7 11 29.88 1012 0.75 1.207005 0.001 0.001
11:33 am 11:33 Cloudy with Light Snow 34 1.1 29 -1.7 82 82 NW 12 19 29.87 1012 3 4.82802 0.01 0.254
11:41 am 11:41 Mostly Cloudy with Light Snow 34 1.1 29 -1.7 82 82 NW 12 19 29.87 1012 4 6.43736 0.01 0.254
11:49 am 11:49 Mostly Cloudy with Haze 34 1 28 -2 81 81 WNW 17 28 29.88 1012 5 8.0467 0.01 0.254
11:54 am 11:54 Mostly Cloudy with Haze 35 1.7 28 -2.2 76 76 WNW 14 22 29.86 1011 6 9.65604 0.01 0.254
12:02 pm 12:02 Mostly Cloudy with Haze 34 1.1 28 -2.2 79 79 NW 15 24 29.88 1012 5 8.0467 0 0
12:54 pm 12:54 Cloudy with Haze 34 1.1 27 -2.8 76 76 NW 16 26 29.86 1011 5 8.0467 0 0
1:46 pm 13:46 Cloudy with Haze 33 0.6 26 -3.3 75 75 NW 20 31 29.91 1013 4 6.43736 0 0
1:54 pm 13:54 Cloudy with Haze 34 1.1 27 -2.8 76 76 NW 17 28 29.87 1012 4 6.43736 0 0
2:19 pm 14:19 Cloudy with Haze 34 1.1 27 -2.8 76 76 NW 17 28 29.9 1013 5 8.0467 0 0
2:54 pm 14:54 Cloudy with Haze 35 1.7 28 -2.2 76 76 NW 17 28 29.88 1012 5 8.0467 0 0
3:54 pm 15:54 Cloudy with Haze 35 1.7 27 -2.8 72 72 NW 17 28 29.9 1013 6 9.65604 0 0
4:34 pm 16:34 Hazy 35 1.7 27 -2.8 72 72 NW 16 26 29.94 1014 6 9.65604 0 0
4:54 pm 16:54 Sunny 36 2.2 27 -2.8 70 70 NW 10 17 29.92 1013 7 11.26538 0 0
5:54 pm 17:54 Sunny 35 1.7 27 -2.8 72 72 NW 7 11 29.95 1014 9 14.48406 0 0
6:54 pm 18:54 Clear 33 0.6 26 -3.3 75 75 WNW 7 11 29.97 1015 10 16.0934 0 0
7:54 pm 19:54 Clear 28 -2.2 23 -5 81 81 Calm 30 1016 10 16.0934 0 0
8:54 pm 20:54 Clear 25 -3.9 20 -6.7 81 81 Calm 30.01 1016 10 16.0934 0 0
9:54 pm 21:54 Clear 31 -0.6 22 -5.6 69 69 W 8 13 30.02 1017 10 16.0934 0 0
10:54 pm 22:54 Clear 29 -1.7 21 -6.1 72 72 W 5 7 30.02 1017 10 16.0934 0 0
11:54 pm 23:54 Clear 28 -2.2 20 -6.7 72 72 Calm 30.01 1016 10 16.0934 0 0

Powered by AerisWeather